Location: Key Biscayne
(25.6930°N, 80.1630°W)
Time: 14:49:47
(UTC-04:00)

CZ-2D R/B - Visible Passes

Search period start: 30 July 2016 00:00
Search period end: 09 August 2016 00:00
Orbit: 525 x 543 km, 97.5° (Epoch: 29 July)

Date Brightness Start Highest point End Pass type
(mag) Time Alt. Az. Time Alt. Az. Time Alt. Az.
30 Jul 5.2 21:38:16 10° SSW 21:41:33 27° W 21:44:49 10° NW visible
31 Jul 4.6 21:28:51 10° SSW 21:32:23 37° W 21:35:56 10° NNW visible
01 Aug 4.0 21:19:32 10° S 21:23:14 51° W 21:26:57 10° NNW visible
02 Aug 3.4 21:10:18 10° S 21:14:05 72° W 21:17:53 10° NNW visible
03 Aug 3.1 21:01:10 10° SSE 21:04:57 82° ENE 21:08:46 10° N visible
04 Aug 3.3 20:52:06 10° SSE 20:55:49 58° ENE 20:59:34 10° N visible
05 Aug 3.7 20:43:06 10° SSE 20:46:42 42° ENE 20:50:19 10° N visible
06 Aug 4.1 20:34:13 10° SE 20:37:36 31° ENE 20:40:59 10° NNE visible
06 Aug 6.4 22:11:31 10° WSW 22:12:01 10° W 22:12:30 10° W visible
07 Aug 4.5 20:25:26 10° SE 20:28:29 23° ENE 20:31:33 10° NNE visible
07 Aug 6.1 22:00:46 10° SW 22:02:48 14° W 22:04:51 10° WNW visible
08 Aug 5.8 21:50:54 10° SW 21:53:38 19° W 21:56:21 10° NW visible
